METOP-A (29499 NORAD) Tracking and Keplerian Element Data

This shows tracking and keplerian element data for the satellite.

Feedback or suggestion? Click here.




ElementValue
Catalog29499
NameMETOP-A
Epoch Orbit79667
Epoch Day72.95390372
Epoch Year2022
RAAN114.4803
Inclination98.4645
Eccentricity0.019763
Argument of Perigee307.568
Mean Anonmoly176.567
Mean Motion14.66982421
Decay Rate1.038E-05
L11 29499U 06044A 22072.95390372 .00001038 00000+0 14747-3 0 9995
L22 29499 98.4645 114.4803 0197630 307.5680 176.5670 14.66982421796677



Live tracking and technical data element details for METOP-A (NORAD 29499). METOP-A can be tracked NOW for your location showing map with azimuth and elevation plus other details from your city location.







IsCatalogInMostPopularTable: catalog: 29499, numindb: 341
Update: records affected: 1



GetName: 29499 METOP-A

Hit Count: updated at: Thu, 15 May 2025 20:13:06 GMT